UAE503 VABB-OMDB

Flight info

Callsign UAE503
Flight time 2h 29m
Altitude 40000
Route RAXET2A SAKUN V1 BIMOT DCT DOGET N571 VUSET A454 PASOV B540 KUPMA/N0405F240 B540 MIVEK P574 IMPED
Aircraft A359/H-SDE2E3GHIJ3J4J5LM1ORWXY/LB1D1

Departure

Time 2026-05-05 14:57
Airport Chhatrapati Shivaji Maharaj International Airport (VABB)

Arrival

Time 2026-05-05 17:27
Airport Dubai International Airport (OMDB)
Time Latitude Longitude Altitude Speed Heading
2026-05-05 14:14 19.09476 72.87068 56 ft 0 kts 141°
2026-05-05 14:41 19.09479 72.87066 55 ft 2 kts 141°
2026-05-05 14:41 19.09492 72.87055 48 ft 2 kts 144°
2026-05-05 14:41 19.09506 72.87046 48 ft 2 kts 148°
2026-05-05 14:42 19.09520 72.87037 48 ft 2 kts 157°
2026-05-05 14:42 19.09536 72.87032 49 ft 2 kts 178°
2026-05-05 14:42 19.09552 72.87036 48 ft 2 kts 218°
2026-05-05 14:42 19.09560 72.87043 50 ft 1 kts 226°
2026-05-05 14:43 19.09560 72.87044 50 ft 0 kts 226°
2026-05-05 14:48 19.09560 72.87043 50 ft 1 kts 226°
2026-05-05 14:48 19.09539 72.87020 48 ft 8 kts 227°
2026-05-05 14:49 19.09489 72.86962 48 ft 14 kts 227°
2026-05-05 14:49 19.09422 72.86882 50 ft 12 kts 229°
2026-05-05 14:49 19.09353 72.86882 54 ft 13 kts 132°
2026-05-05 14:49 19.09279 72.86971 50 ft 20 kts 131°
2026-05-05 14:50 19.09233 72.87087 53 ft 13 kts 90°
2026-05-05 14:50 19.09234 72.87161 56 ft 14 kts 89°
2026-05-05 14:50 19.09222 72.87269 50 ft 4 kts 131°
2026-05-05 14:50 19.09195 72.87268 49 ft 7 kts 182°
2026-05-05 14:51 19.09125 72.87263 49 ft 13 kts 183°
2026-05-05 14:51 19.09049 72.87281 50 ft 6 kts 125°
2026-05-05 14:51 19.09051 72.87330 52 ft 10 kts 86°
2026-05-05 14:51 19.09052 72.87432 50 ft 16 kts 90°
2026-05-05 14:52 19.09053 72.87564 50 ft 19 kts 89°
2026-05-05 14:52 19.09055 72.87714 49 ft 22 kts 89°
2026-05-05 14:52 19.09057 72.87868 49 ft 13 kts 89°
2026-05-05 14:52 19.09058 72.87950 48 ft 11 kts 89°
2026-05-05 14:53 19.09059 72.88016 55 ft 7 kts 91°
2026-05-05 14:53 19.09037 72.88048 52 ft 5 kts 149°
2026-05-05 14:53 19.09018 72.88051 50 ft 1 kts 179°
2026-05-05 14:53 19.09011 72.88051 51 ft 0 kts 181°
2026-05-05 14:55 19.09000 72.88050 53 ft 4 kts 181°
2026-05-05 14:55 19.08953 72.88050 52 ft 9 kts 181°
2026-05-05 14:55 19.08901 72.88038 53 ft 5 kts 222°
2026-05-05 14:55 19.08888 72.88005 52 ft 0 kts 266°
2026-05-05 14:56 19.08888 72.88003 51 ft 0 kts 269°
2026-05-05 14:57 19.08887 72.87962 52 ft 27 kts 269°
2026-05-05 14:57 19.08881 72.87485 55 ft 101 kts 269°
2026-05-05 14:57 19.08866 72.86517 70 ft 159 kts 269°
2026-05-05 14:57 19.08847 72.85370 871 ft 154 kts 269°
2026-05-05 14:58 19.08818 72.84229 1588 ft 153 kts 268°
2026-05-05 14:58 19.08779 72.83157 2161 ft 146 kts 267°
2026-05-05 14:58 19.08757 72.82030 2390 ft 163 kts 271°
2026-05-05 14:58 19.08764 72.80767 2637 ft 182 kts 270°
2026-05-05 14:59 19.08762 72.79358 2886 ft 202 kts 269°
2026-05-05 14:59 19.08745 72.77796 3172 ft 222 kts 269°
2026-05-05 14:59 19.08718 72.76098 3448 ft 241 kts 269°
2026-05-05 14:59 19.08782 72.74283 3902 ft 251 kts 275°
2026-05-05 15:00 19.08979 72.72430 4499 ft 257 kts 276°
2026-05-05 15:00 19.09122 72.71167 4787 ft 264 kts 276°
2026-05-05 15:00 19.09409 72.68573 5309 ft 271 kts 276°
2026-05-05 15:00 19.09625 72.66597 5959 ft 271 kts 276°
2026-05-05 15:01 19.09841 72.64606 6551 ft 274 kts 276°
2026-05-05 15:01 19.10058 72.62594 7126 ft 276 kts 276°
2026-05-05 15:01 19.10276 72.60568 7703 ft 279 kts 276°
2026-05-05 15:01 19.10496 72.58523 8268 ft 281 kts 276°
2026-05-05 15:02 19.10718 72.56457 8829 ft 285 kts 276°
2026-05-05 15:02 19.10892 72.54833 9258 ft 287 kts 276°
2026-05-05 15:02 19.11117 72.52726 9821 ft 290 kts 276°
2026-05-05 15:02 19.11348 72.50573 10178 ft 300 kts 276°
2026-05-05 15:03 19.11585 72.48360 10402 ft 314 kts 276°
2026-05-05 15:03 19.11669 72.47578 10477 ft 319 kts 276°
2026-05-05 15:03 19.11937 72.45064 10713 ft 332 kts 276°
2026-05-05 15:03 19.12060 72.43914 10847 ft 336 kts 276°
2026-05-05 15:04 19.12311 72.41558 11194 ft 341 kts 277°
2026-05-05 15:04 19.12578 72.39052 11645 ft 344 kts 277°
2026-05-05 15:04 19.12844 72.36543 12099 ft 347 kts 277°
2026-05-05 15:04 19.13114 72.33999 12568 ft 349 kts 277°
2026-05-05 15:05 19.13654 72.28905 13481 ft 353 kts 277°
2026-05-05 15:05 19.13928 72.26314 13899 ft 355 kts 277°
2026-05-05 15:05 19.14203 72.23707 14294 ft 358 kts 277°
2026-05-05 15:06 19.14479 72.21082 14688 ft 360 kts 277°
2026-05-05 15:06 19.14756 72.18446 15074 ft 363 kts 277°
2026-05-05 15:06 19.15036 72.15792 15466 ft 365 kts 277°
2026-05-05 15:06 19.15320 72.13109 15858 ft 367 kts 278°
2026-05-05 15:07 19.15756 72.10448 16262 ft 369 kts 285°
2026-05-05 15:07 19.16620 72.07893 16655 ft 370 kts 296°
2026-05-05 15:07 19.17789 72.05467 17056 ft 371 kts 299°
2026-05-05 15:07 19.19001 72.03090 17455 ft 373 kts 299°
2026-05-05 15:08 19.20240 72.00659 17834 ft 376 kts 299°
2026-05-05 15:08 19.21477 71.98219 18203 ft 378 kts 299°
2026-05-05 15:08 19.22719 71.95761 18531 ft 380 kts 299°
2026-05-05 15:08 19.23968 71.93283 18889 ft 381 kts 299°
2026-05-05 15:09 19.25217 71.90803 19229 ft 383 kts 299°
2026-05-05 15:09 19.26469 71.88312 19569 ft 385 kts 299°
2026-05-05 15:09 19.27727 71.85810 19908 ft 386 kts 299°
2026-05-05 15:09 19.28993 71.83289 20254 ft 387 kts 299°
2026-05-05 15:10 19.30258 71.80769 20589 ft 389 kts 299°
2026-05-05 15:10 19.31511 71.78274 20920 ft 390 kts 299°
2026-05-05 15:10 19.32787 71.75730 21230 ft 392 kts 300°
2026-05-05 15:10 19.34068 71.73174 21564 ft 393 kts 300°
2026-05-05 15:11 19.35350 71.70616 21878 ft 394 kts 300°
2026-05-05 15:11 19.36638 71.68045 22199 ft 396 kts 300°
2026-05-05 15:11 19.37933 71.65460 22510 ft 397 kts 300°
2026-05-05 15:11 19.39225 71.62877 22792 ft 399 kts 300°
2026-05-05 15:12 19.40528 71.60273 23108 ft 401 kts 300°
2026-05-05 15:12 19.41820 71.57691 23387 ft 402 kts 300°
2026-05-05 15:12 19.43149 71.55032 23626 ft 404 kts 300°
2026-05-05 15:12 19.44446 71.52435 23851 ft 406 kts 299°
2026-05-05 15:13 19.45767 71.49790 24077 ft 407 kts 299°
2026-05-05 15:13 19.47095 71.47129 24302 ft 409 kts 299°
2026-05-05 15:13 19.48428 71.44457 24527 ft 410 kts 299°
2026-05-05 15:13 19.49765 71.41777 24764 ft 412 kts 299°
2026-05-05 15:14 19.51103 71.39091 24998 ft 413 kts 299°
2026-05-05 15:14 19.52447 71.36394 25225 ft 415 kts 299°
2026-05-05 15:14 19.53778 71.33721 25451 ft 416 kts 299°
2026-05-05 15:14 19.55134 71.30998 25686 ft 418 kts 299°
2026-05-05 15:15 19.56491 71.28271 25916 ft 419 kts 298°
2026-05-05 15:15 19.57853 71.25533 26142 ft 421 kts 298°
2026-05-05 15:15 19.59222 71.22777 26380 ft 423 kts 298°
2026-05-05 15:15 19.60542 71.19982 26626 ft 425 kts 295°
2026-05-05 15:16 19.61622 71.17070 26883 ft 426 kts 291°
2026-05-05 15:16 19.62602 71.14091 27113 ft 429 kts 289°
2026-05-05 15:16 19.63526 71.11121 27357 ft 430 kts 289°
2026-05-05 15:16 19.64445 71.08097 27616 ft 432 kts 289°
2026-05-05 15:17 19.65366 71.05061 27863 ft 434 kts 289°
2026-05-05 15:17 19.66300 71.02008 28130 ft 435 kts 289°
2026-05-05 15:17 19.67239 70.98962 28386 ft 437 kts 289°
2026-05-05 15:17 19.68192 70.95889 28640 ft 439 kts 289°
2026-05-05 15:18 19.69152 70.92807 28888 ft 440 kts 289°
2026-05-05 15:18 19.70116 70.89713 29141 ft 442 kts 289°
2026-05-05 15:18 19.71084 70.86607 29407 ft 444 kts 289°
2026-05-05 15:18 19.72042 70.83533 29668 ft 446 kts 289°
2026-05-05 15:19 19.73030 70.80356 29938 ft 448 kts 289°
2026-05-05 15:19 19.73993 70.77259 30177 ft 449 kts 289°
2026-05-05 15:19 19.74969 70.74115 30417 ft 451 kts 289°
2026-05-05 15:19 19.75954 70.70940 30670 ft 452 kts 289°
2026-05-05 15:20 19.76939 70.67765 30937 ft 454 kts 289°
2026-05-05 15:20 19.77926 70.64578 31203 ft 455 kts 289°
2026-05-05 15:20 19.78917 70.61379 31471 ft 457 kts 289°
2026-05-05 15:20 19.79910 70.58170 31732 ft 458 kts 289°
2026-05-05 15:21 19.80904 70.54953 31985 ft 460 kts 289°
2026-05-05 15:21 19.81889 70.51766 32235 ft 461 kts 289°
2026-05-05 15:21 19.82889 70.48527 32484 ft 463 kts 289°
2026-05-05 15:21 19.83891 70.45279 32738 ft 464 kts 289°
2026-05-05 15:22 19.84901 70.42003 32992 ft 466 kts 289°
2026-05-05 15:22 19.85906 70.38740 33231 ft 467 kts 289°
2026-05-05 15:22 19.86920 70.35449 33463 ft 469 kts 289°
2026-05-05 15:22 19.87932 70.32155 33702 ft 470 kts 288°
2026-05-05 15:23 19.88922 70.28884 33922 ft 472 kts 288°
2026-05-05 15:23 19.89920 70.25553 34117 ft 474 kts 288°
2026-05-05 15:23 19.90917 70.22213 34301 ft 475 kts 288°
2026-05-05 15:23 19.91919 70.18859 34526 ft 476 kts 288°
2026-05-05 15:24 19.92920 70.15510 34829 ft 475 kts 288°
2026-05-05 15:24 19.93922 70.12166 35120 ft 475 kts 288°
2026-05-05 15:24 19.94923 70.08823 35412 ft 475 kts 288°
2026-05-05 15:24 19.95924 70.05481 35722 ft 474 kts 288°
2026-05-05 15:25 19.96922 70.02145 36031 ft 473 kts 288°
2026-05-05 15:25 19.97918 69.98817 36317 ft 473 kts 288°
2026-05-05 15:25 19.98917 69.95477 36615 ft 473 kts 288°
2026-05-05 15:25 19.99898 69.92192 36911 ft 473 kts 288°
2026-05-05 15:26 20.00890 69.88868 37224 ft 472 kts 288°
2026-05-05 15:26 20.01882 69.85542 37532 ft 472 kts 288°
2026-05-05 15:26 20.02872 69.82220 37842 ft 471 kts 288°
2026-05-05 15:26 20.03857 69.78910 38151 ft 471 kts 288°
2026-05-05 15:27 20.04848 69.75580 38445 ft 470 kts 288°
2026-05-05 15:27 20.05832 69.72268 38702 ft 470 kts 288°
2026-05-05 15:27 20.06817 69.68953 38934 ft 470 kts 288°
2026-05-05 15:27 20.07789 69.65681 39172 ft 470 kts 288°
2026-05-05 15:28 20.08770 69.62372 39388 ft 470 kts 288°
2026-05-05 15:28 20.09751 69.59064 39605 ft 469 kts 288°
2026-05-05 15:28 20.10732 69.55750 39816 ft 470 kts 288°
2026-05-05 15:29 20.12697 69.49108 39860 ft 470 kts 288°
2026-05-05 15:29 20.14654 69.42482 39860 ft 470 kts 288°
2026-05-05 15:30 20.16613 69.35844 39861 ft 470 kts 288°
2026-05-05 15:30 20.18549 69.29268 39856 ft 470 kts 288°
2026-05-05 15:31 20.20503 69.22623 39864 ft 470 kts 288°
2026-05-05 15:31 20.22454 69.15978 39862 ft 470 kts 288°
2026-05-05 15:32 20.24403 69.09331 39864 ft 470 kts 288°
2026-05-05 15:32 20.26347 69.02691 39865 ft 470 kts 288°
2026-05-05 15:33 20.28275 68.96091 39864 ft 470 kts 288°
2026-05-05 15:33 20.30216 68.89442 39864 ft 470 kts 288°
2026-05-05 15:34 20.32154 68.82789 39862 ft 470 kts 288°
2026-05-05 15:34 20.34077 68.76180 39864 ft 470 kts 288°
2026-05-05 15:35 20.36009 68.69527 39864 ft 470 kts 288°
2026-05-05 15:35 20.37941 68.62867 39863 ft 470 kts 288°
2026-05-05 15:36 20.39868 68.56212 39866 ft 470 kts 288°
2026-05-05 15:36 20.41792 68.49556 39864 ft 470 kts 288°
2026-05-05 15:37 20.43702 68.42941 39864 ft 470 kts 288°
2026-05-05 15:37 20.45623 68.36275 39864 ft 470 kts 287°
2026-05-05 15:38 20.47539 68.29615 39867 ft 470 kts 287°
2026-05-05 15:38 20.49446 68.22978 39865 ft 472 kts 287°
2026-05-05 15:39 20.51385 68.16221 39867 ft 482 kts 287°
2026-05-05 15:39 20.53365 68.09309 39864 ft 490 kts 287°
2026-05-05 15:40 20.55360 68.02329 39868 ft 493 kts 287°
2026-05-05 15:40 20.57357 67.95334 39862 ft 493 kts 287°
2026-05-05 15:41 20.59334 67.88396 39866 ft 492 kts 287°
2026-05-05 15:41 20.61322 67.81405 39864 ft 492 kts 287°
2026-05-05 15:42 20.63310 67.74407 39866 ft 492 kts 287°
2026-05-05 15:42 20.65290 67.67423 39866 ft 492 kts 287°
2026-05-05 15:43 20.67269 67.60433 39869 ft 492 kts 287°
2026-05-05 15:43 20.69230 67.53493 39863 ft 492 kts 287°
2026-05-05 15:44 20.71200 67.46508 39860 ft 492 kts 287°
2026-05-05 15:44 20.73172 67.39507 39864 ft 492 kts 287°
2026-05-05 15:45 20.75138 67.32516 39862 ft 492 kts 287°
2026-05-05 15:45 20.77090 67.25559 39860 ft 492 kts 287°
2026-05-05 15:46 20.79052 67.18559 39863 ft 492 kts 287°
2026-05-05 15:46 20.81008 67.11564 39865 ft 492 kts 287°
2026-05-05 15:47 20.82966 67.04555 39861 ft 492 kts 287°
2026-05-05 15:47 20.84903 66.97605 39864 ft 492 kts 287°
2026-05-05 15:48 20.86853 66.90596 39864 ft 492 kts 287°
2026-05-05 15:48 20.88802 66.83583 39860 ft 492 kts 287°
2026-05-05 15:49 20.90744 66.76579 39865 ft 492 kts 287°
2026-05-05 15:49 20.92676 66.69603 39863 ft 492 kts 287°
2026-05-05 15:50 20.94613 66.62592 39863 ft 492 kts 287°
2026-05-05 15:50 20.96549 66.55575 39861 ft 492 kts 287°
2026-05-05 15:51 20.98481 66.48560 39862 ft 492 kts 287°
2026-05-05 15:51 21.00412 66.41539 39862 ft 492 kts 286°
2026-05-05 15:52 21.02325 66.34568 39861 ft 491 kts 286°
2026-05-05 15:52 21.04247 66.27552 39858 ft 492 kts 286°
2026-05-05 15:53 21.06169 66.20527 39862 ft 492 kts 286°
2026-05-05 15:53 21.08087 66.13501 39862 ft 492 kts 286°
2026-05-05 15:54 21.09990 66.06517 39862 ft 492 kts 286°
2026-05-05 15:54 21.12101 65.99565 39863 ft 492 kts 294°
2026-05-05 15:55 21.15046 65.92958 39862 ft 492 kts 296°
2026-05-05 15:55 21.18135 65.86418 39863 ft 492 kts 296°
2026-05-05 15:56 21.21238 65.79885 39861 ft 492 kts 296°
2026-05-05 15:56 21.24306 65.73383 39863 ft 492 kts 296°
2026-05-05 15:57 21.27385 65.66828 39859 ft 492 kts 296°
2026-05-05 15:57 21.30455 65.60277 39861 ft 492 kts 296°
2026-05-05 15:58 21.33523 65.53722 39858 ft 492 kts 296°
2026-05-05 15:58 21.36571 65.47205 39859 ft 492 kts 296°
2026-05-05 15:59 21.39633 65.40649 39861 ft 492 kts 296°
2026-05-05 15:59 21.42696 65.34083 39859 ft 492 kts 296°
2026-05-05 16:00 21.45755 65.27518 39859 ft 492 kts 296°
2026-05-05 16:00 21.48808 65.20957 39858 ft 491 kts 296°
2026-05-05 16:01 21.51842 65.14430 39859 ft 491 kts 296°
2026-05-05 16:01 21.54889 65.07866 39856 ft 491 kts 296°
2026-05-05 16:02 21.57933 65.01299 39853 ft 491 kts 296°
2026-05-05 16:02 21.60970 64.94738 39859 ft 490 kts 296°
2026-05-05 16:03 21.63981 64.88227 39862 ft 490 kts 295°
2026-05-05 16:03 21.67012 64.81664 39858 ft 490 kts 295°
2026-05-05 16:04 21.70035 64.75110 39857 ft 490 kts 295°
2026-05-05 16:04 21.73059 64.68546 39856 ft 489 kts 295°
2026-05-05 16:05 21.76078 64.61983 39856 ft 489 kts 295°
2026-05-05 16:05 21.79067 64.55478 39858 ft 489 kts 295°
2026-05-05 16:06 21.82079 64.48915 39857 ft 489 kts 295°
2026-05-05 16:06 21.85082 64.42364 39855 ft 488 kts 295°
2026-05-05 16:07 21.88085 64.35802 39859 ft 488 kts 295°
2026-05-05 16:07 21.91055 64.29304 39857 ft 487 kts 295°
2026-05-05 16:08 21.94050 64.22746 39855 ft 487 kts 295°
2026-05-05 16:08 21.97030 64.16211 39855 ft 487 kts 295°
2026-05-05 16:09 22.00011 64.09663 39857 ft 486 kts 295°
2026-05-05 16:09 22.02971 64.03155 39856 ft 486 kts 295°
2026-05-05 16:10 22.05942 63.96613 39854 ft 486 kts 295°
2026-05-05 16:10 22.08911 63.90068 39857 ft 485 kts 295°
2026-05-05 16:11 22.11870 63.83536 39855 ft 485 kts 295°
2026-05-05 16:12 22.17766 63.70496 39854 ft 485 kts 295°
2026-05-05 16:13 22.25128 63.54166 39854 ft 483 kts 295°
2026-05-05 16:13 22.28044 63.47683 39853 ft 483 kts 295°
2026-05-05 16:14 22.33900 63.34638 39855 ft 482 kts 295°
2026-05-05 16:15 22.39717 63.21647 39851 ft 482 kts 295°
2026-05-05 16:16 22.45504 63.08601 39848 ft 481 kts 293°
2026-05-05 16:17 22.49348 62.98632 39849 ft 481 kts 291°
2026-05-05 16:18 22.53176 62.88620 39850 ft 480 kts 292°
2026-05-05 16:19 22.57061 62.78631 39851 ft 480 kts 292°
2026-05-05 16:19 22.60927 62.68692 39852 ft 480 kts 292°
2026-05-05 16:20 22.66085 62.55381 39850 ft 479 kts 292°
2026-05-05 16:22 22.72497 62.38779 39845 ft 479 kts 292°
2026-05-05 16:23 22.77622 62.25466 39848 ft 478 kts 292°
2026-05-05 16:23 22.81440 62.15523 39846 ft 478 kts 292°
2026-05-05 16:24 22.83995 62.08858 39846 ft 478 kts 292°
2026-05-05 16:25 22.87817 61.98868 39842 ft 478 kts 292°
2026-05-05 16:25 22.91639 61.88860 39835 ft 480 kts 291°
2026-05-05 16:26 22.96732 61.75481 39843 ft 482 kts 291°
2026-05-05 16:27 22.99283 61.68765 39844 ft 481 kts 291°
2026-05-05 16:27 23.01833 61.62044 39840 ft 481 kts 291°
2026-05-05 16:28 23.04363 61.55365 39838 ft 481 kts 291°
2026-05-05 16:28 23.06900 61.48658 39836 ft 481 kts 291°
2026-05-05 16:29 23.09437 61.41941 39836 ft 481 kts 291°
2026-05-05 16:29 23.11956 61.35265 39834 ft 468 kts 291°
2026-05-05 16:30 23.14384 61.28820 39836 ft 457 kts 291°
2026-05-05 16:30 23.16761 61.22495 39838 ft 455 kts 291°
2026-05-05 16:31 23.19155 61.16115 39835 ft 455 kts 291°
2026-05-05 16:31 23.21217 61.10616 39835 ft 455 kts 291°
2026-05-05 16:32 23.23601 61.04249 39835 ft 455 kts 291°
2026-05-05 16:32 23.25968 60.97920 39834 ft 455 kts 290°
2026-05-05 16:33 23.28345 60.91554 39831 ft 454 kts 290°
2026-05-05 16:33 23.30723 60.85178 39830 ft 454 kts 290°
2026-05-05 16:34 23.33095 60.78807 39829 ft 454 kts 290°
2026-05-05 16:34 23.35444 60.72489 39830 ft 454 kts 290°
2026-05-05 16:35 23.37807 60.66126 39830 ft 453 kts 290°
2026-05-05 16:35 23.40165 60.59758 39827 ft 453 kts 290°
2026-05-05 16:36 23.42494 60.53379 39826 ft 453 kts 290°
2026-05-05 16:36 23.44815 60.47009 39828 ft 453 kts 290°
2026-05-05 16:37 23.47123 60.40679 39823 ft 453 kts 290°
2026-05-05 16:37 23.49447 60.34304 39820 ft 452 kts 290°
2026-05-05 16:38 23.51765 60.27939 39820 ft 452 kts 290°
2026-05-05 16:38 23.54081 60.21567 39819 ft 452 kts 290°
2026-05-05 16:39 23.56378 60.15240 39819 ft 452 kts 290°
2026-05-05 16:39 23.58686 60.08872 39817 ft 452 kts 290°
2026-05-05 16:40 23.60991 60.02502 39816 ft 452 kts 290°
2026-05-05 16:40 23.63294 59.96128 39815 ft 451 kts 290°
2026-05-05 16:41 23.65580 59.89794 39812 ft 451 kts 290°
2026-05-05 16:41 23.67873 59.83429 39813 ft 451 kts 290°
2026-05-05 16:42 23.70164 59.77062 39815 ft 451 kts 290°
2026-05-05 16:42 23.72451 59.70695 39810 ft 450 kts 289°
2026-05-05 16:43 23.74736 59.64326 39811 ft 450 kts 289°
2026-05-05 16:43 23.76996 59.58015 39810 ft 450 kts 289°
2026-05-05 16:44 23.79272 59.51650 39809 ft 450 kts 289°
2026-05-05 16:44 23.81545 59.45285 39811 ft 449 kts 289°
2026-05-05 16:45 23.83811 59.38931 39806 ft 449 kts 289°
2026-05-05 16:45 23.86059 59.32616 39806 ft 449 kts 289°
2026-05-05 16:46 23.88322 59.26250 39804 ft 449 kts 289°
2026-05-05 16:46 23.90575 59.19903 39802 ft 448 kts 289°
2026-05-05 16:47 23.92827 59.13551 39802 ft 448 kts 289°
2026-05-05 16:47 23.94957 59.07205 39807 ft 447 kts 287°
2026-05-05 16:48 23.96972 59.00772 39807 ft 448 kts 288°
2026-05-05 16:48 23.99000 58.94325 39800 ft 449 kts 288°
2026-05-05 16:49 24.01058 58.87864 39796 ft 450 kts 288°
2026-05-05 16:49 24.02771 58.82509 39794 ft 449 kts 288°
2026-05-05 16:50 24.05167 58.75011 39796 ft 449 kts 288°
2026-05-05 16:50 24.07224 58.68554 39797 ft 449 kts 288°
2026-05-05 16:51 24.09276 58.62104 39795 ft 449 kts 288°
2026-05-05 16:51 24.11326 58.55657 39794 ft 448 kts 288°
2026-05-05 16:52 24.13356 58.49257 39792 ft 448 kts 288°
2026-05-05 16:52 24.15391 58.42815 39794 ft 447 kts 288°
2026-05-05 16:53 24.17081 58.37462 39793 ft 447 kts 288°
2026-05-05 16:53 24.19451 58.29950 39797 ft 447 kts 288°
2026-05-05 16:54 24.21137 58.24597 39796 ft 446 kts 288°
2026-05-05 16:54 24.23158 58.18171 39801 ft 446 kts 288°
2026-05-05 16:55 24.25162 58.11788 39650 ft 447 kts 288°
2026-05-05 16:55 24.26189 58.08509 39417 ft 451 kts 288°
2026-05-05 16:55 24.27195 58.05295 39210 ft 453 kts 288°
2026-05-05 16:56 24.28219 58.02025 38980 ft 453 kts 288°
2026-05-05 16:56 24.29239 57.98762 38754 ft 453 kts 288°
2026-05-05 16:56 24.30261 57.95494 38536 ft 453 kts 288°
2026-05-05 16:56 24.31280 57.92230 38280 ft 453 kts 288°
2026-05-05 16:57 24.32299 57.88964 38017 ft 453 kts 288°
2026-05-05 16:57 24.33317 57.85700 37757 ft 453 kts 288°
2026-05-05 16:57 24.34338 57.82424 37315 ft 454 kts 288°
2026-05-05 16:57 24.35344 57.79192 36781 ft 454 kts 288°
2026-05-05 16:58 24.36363 57.75916 36276 ft 454 kts 288°
2026-05-05 16:58 24.37383 57.72631 35801 ft 455 kts 288°
2026-05-05 16:58 24.38404 57.69343 35322 ft 456 kts 288°
2026-05-05 16:58 24.39422 57.66061 34874 ft 455 kts 288°
2026-05-05 16:59 24.40438 57.62783 34414 ft 451 kts 288°
2026-05-05 16:59 24.41443 57.59537 33965 ft 448 kts 288°
2026-05-05 16:59 24.42440 57.56312 33475 ft 444 kts 288°
2026-05-05 16:59 24.43416 57.53156 32975 ft 441 kts 288°
2026-05-05 17:00 24.44394 57.49992 32474 ft 437 kts 288°
2026-05-05 17:00 24.45368 57.46848 31990 ft 433 kts 288°
2026-05-05 17:00 24.46327 57.43737 31513 ft 430 kts 288°
2026-05-05 17:00 24.47281 57.40634 31036 ft 426 kts 288°
2026-05-05 17:01 24.48222 57.37571 30571 ft 423 kts 288°
2026-05-05 17:01 24.49161 57.34516 30119 ft 420 kts 288°
2026-05-05 17:01 24.50089 57.31492 29621 ft 417 kts 288°
2026-05-05 17:01 24.51011 57.28491 29091 ft 414 kts 288°
2026-05-05 17:02 24.51915 57.25543 28577 ft 411 kts 288°
2026-05-05 17:02 24.52825 57.22576 28062 ft 409 kts 288°
2026-05-05 17:02 24.53728 57.19628 27564 ft 406 kts 288°
2026-05-05 17:02 24.54627 57.16692 27074 ft 404 kts 288°
2026-05-05 17:03 24.55518 57.13778 26584 ft 402 kts 288°
2026-05-05 17:03 24.56405 57.10878 26108 ft 400 kts 288°
2026-05-05 17:03 24.57290 57.07978 25638 ft 398 kts 288°
2026-05-05 17:03 24.58168 57.05101 25176 ft 397 kts 288°
2026-05-05 17:04 24.59043 57.02233 24689 ft 396 kts 288°
2026-05-05 17:04 24.59905 56.99403 24168 ft 395 kts 288°
2026-05-05 17:04 24.60773 56.96554 23701 ft 392 kts 288°
2026-05-05 17:04 24.61635 56.93718 23216 ft 390 kts 288°
2026-05-05 17:05 24.62491 56.90899 22670 ft 388 kts 288°
2026-05-05 17:05 24.63344 56.88084 22131 ft 386 kts 288°
2026-05-05 17:05 24.64205 56.85298 21605 ft 384 kts 290°
2026-05-05 17:05 24.65192 56.82593 21085 ft 381 kts 292°
2026-05-05 17:06 24.66220 56.79917 20583 ft 378 kts 294°
2026-05-05 17:06 24.67261 56.77279 20075 ft 376 kts 294°
2026-05-05 17:06 24.68294 56.74689 19598 ft 373 kts 294°
2026-05-05 17:06 24.69336 56.72088 19107 ft 371 kts 295°
2026-05-05 17:07 24.70371 56.69501 18643 ft 369 kts 295°
2026-05-05 17:07 24.71400 56.66921 18171 ft 366 kts 295°
2026-05-05 17:07 24.72417 56.64366 17653 ft 364 kts 295°
2026-05-05 17:07 24.73428 56.61823 17219 ft 361 kts 295°
2026-05-05 17:08 24.74434 56.59288 16849 ft 360 kts 295°
2026-05-05 17:08 24.75432 56.56770 16479 ft 359 kts 295°
2026-05-05 17:08 24.76427 56.54255 16115 ft 358 kts 295°
2026-05-05 17:08 24.77404 56.51784 15761 ft 357 kts 295°
2026-05-05 17:09 24.78392 56.49284 15394 ft 356 kts 294°
2026-05-05 17:09 24.79375 56.46795 15043 ft 354 kts 294°
2026-05-05 17:09 24.80355 56.44312 14696 ft 353 kts 294°
2026-05-05 17:09 24.81330 56.41839 14355 ft 352 kts 294°
2026-05-05 17:10 24.82304 56.39368 14011 ft 351 kts 294°
2026-05-05 17:10 24.83272 56.36910 13671 ft 350 kts 294°
2026-05-05 17:10 24.84237 56.34458 13299 ft 348 kts 294°
2026-05-05 17:10 24.85198 56.32018 12920 ft 346 kts 294°
2026-05-05 17:11 24.86143 56.29625 12504 ft 345 kts 293°
2026-05-05 17:11 24.87104 56.27197 12137 ft 346 kts 292°
2026-05-05 17:11 24.88177 56.24827 11773 ft 345 kts 297°
2026-05-05 17:11 24.89321 56.22538 11413 ft 338 kts 298°
2026-05-05 17:12 24.90456 56.20300 11057 ft 331 kts 298°
2026-05-05 17:12 24.91572 56.18114 10706 ft 324 kts 298°
2026-05-05 17:12 24.92668 56.15972 10354 ft 318 kts 298°
2026-05-05 17:12 24.93729 56.13903 10077 ft 310 kts 298°
2026-05-05 17:13 24.94776 56.11862 9811 ft 303 kts 298°
2026-05-05 17:13 24.95798 56.09868 9522 ft 296 kts 298°
2026-05-05 17:13 24.96811 56.07900 9213 ft 294 kts 298°
2026-05-05 17:13 24.97979 56.06058 8918 ft 293 kts 309°
2026-05-05 17:14 24.99329 56.04378 8632 ft 292 kts 311°
2026-05-05 17:14 25.00691 56.02729 8328 ft 291 kts 311°
2026-05-05 17:14 25.02053 56.01078 8049 ft 290 kts 311°
2026-05-05 17:14 25.03401 55.99435 7767 ft 289 kts 311°
2026-05-05 17:15 25.04729 55.97813 7485 ft 288 kts 311°
2026-05-05 17:15 25.06071 55.96173 7203 ft 287 kts 311°
2026-05-05 17:15 25.07401 55.94557 6918 ft 282 kts 311°
2026-05-05 17:15 25.08702 55.92960 6642 ft 277 kts 311°
2026-05-05 17:16 25.09974 55.91396 6354 ft 272 kts 311°
2026-05-05 17:16 25.11224 55.89859 6109 ft 265 kts 311°
2026-05-05 17:16 25.12438 55.88366 5906 ft 258 kts 311°
2026-05-05 17:16 25.13621 55.86912 5678 ft 252 kts 312°
2026-05-05 17:17 25.14778 55.85489 5461 ft 246 kts 312°
2026-05-05 17:17 25.15840 55.84038 5246 ft 241 kts 304°
2026-05-05 17:17 25.16725 55.82518 5019 ft 236 kts 302°
2026-05-05 17:17 25.17568 55.80992 4813 ft 232 kts 301°
2026-05-05 17:18 25.18214 55.79436 4603 ft 228 kts 287°
2026-05-05 17:18 25.18351 55.77713 4377 ft 225 kts 263°
2026-05-05 17:18 25.17880 55.76093 4163 ft 222 kts 241°
2026-05-05 17:18 25.17060 55.74669 3946 ft 218 kts 235°
2026-05-05 17:19 25.16206 55.73312 3725 ft 214 kts 235°
2026-05-05 17:19 25.15368 55.71972 3520 ft 210 kts 235°
2026-05-05 17:19 25.14560 55.70665 3299 ft 207 kts 235°
2026-05-05 17:19 25.13752 55.69351 3095 ft 206 kts 235°
2026-05-05 17:20 25.12951 55.68044 2882 ft 205 kts 235°
2026-05-05 17:20 25.12153 55.66739 2661 ft 205 kts 234°
2026-05-05 17:20 25.11392 55.65419 2448 ft 204 kts 240°
2026-05-05 17:20 25.10988 55.63927 2332 ft 207 kts 271°
2026-05-05 17:21 25.11238 55.62393 2236 ft 199 kts 290°
2026-05-05 17:21 25.11790 55.61060 2169 ft 185 kts 299°
2026-05-05 17:21 25.12405 55.59831 2064 ft 183 kts 301°
2026-05-05 17:22 25.13694 55.57439 2032 ft 182 kts 303°
2026-05-05 17:22 25.14366 55.56239 2030 ft 181 kts 303°
2026-05-05 17:22 25.14990 55.55099 2027 ft 170 kts 302°
2026-05-05 17:22 25.15584 55.53994 2030 ft 166 kts 303°
2026-05-05 17:23 25.16174 55.52902 2028 ft 165 kts 303°
2026-05-05 17:23 25.16767 55.51817 2029 ft 166 kts 303°
2026-05-05 17:23 25.17367 55.50731 2009 ft 165 kts 303°
2026-05-05 17:23 25.17950 55.49680 2001 ft 158 kts 303°
2026-05-05 17:24 25.18523 55.48648 1851 ft 157 kts 303°
2026-05-05 17:24 25.19091 55.47628 1636 ft 154 kts 303°
2026-05-05 17:24 25.19640 55.46635 1436 ft 153 kts 304°
2026-05-05 17:24 25.20185 55.45651 1254 ft 148 kts 304°
2026-05-05 17:25 25.20714 55.44695 1060 ft 144 kts 303°
2026-05-05 17:25 25.21057 55.44074 946 ft 141 kts 303°
2026-05-05 17:25 25.21733 55.42853 723 ft 137 kts 303°
2026-05-05 17:25 25.22230 55.41955 571 ft 136 kts 303°
2026-05-05 17:26 25.22723 55.41073 423 ft 133 kts 303°
2026-05-05 17:26 25.23205 55.40194 252 ft 134 kts 302°
2026-05-05 17:26 25.23695 55.39308 96 ft 133 kts 303°
2026-05-05 17:26 25.24143 55.38484 53 ft 129 kts 303°
2026-05-05 17:27 25.24579 55.37702 34 ft 99 kts 302°
2026-05-05 17:27 25.24783 55.37342 35 ft 12 kts 302°
2026-05-05 17:27 25.24804 55.37304 36 ft 12 kts 301°
2026-05-05 17:27 25.24869 55.37186 36 ft 21 kts 301°
2026-05-05 17:28 25.24906 55.37048 36 ft 14 kts 240°
2026-05-05 17:28 25.24859 55.37010 33 ft 0 kts 212°
2026-05-05 17:29 25.24835 55.36993 31 ft 9 kts 212°
2026-05-05 17:29 25.24788 55.36992 30 ft 6 kts 146°
2026-05-05 17:30 25.24749 55.37032 29 ft 9 kts 128°
2026-05-05 17:30 25.24712 55.37103 30 ft 12 kts 117°
2026-05-05 17:30 25.24665 55.37191 29 ft 15 kts 121°
2026-05-05 17:30 25.24605 55.37297 29 ft 18 kts 122°
2026-05-05 17:31 25.24531 55.37428 29 ft 21 kts 122°
2026-05-05 17:31 25.24460 55.37543 29 ft 8 kts 151°
2026-05-05 17:31 25.24431 55.37528 28 ft 6 kts 215°
2026-05-05 17:31 25.24383 55.37493 28 ft 10 kts 212°
2026-05-05 17:32 25.24337 55.37461 28 ft 0 kts 212°
2026-05-05 17:32 25.24332 55.37458 28 ft 3 kts 212°
2026-05-05 17:32 25.24301 55.37437 28 ft 0 kts 212°